Wind_Speed
8 3 2 9 9 11 11 11 11 11 10 10 10 10 10 11 12 12 11 12 13 12 13 13 12 10 11 11 11 13 14 12 13 16 16 15 13 15 14 16 16 15 13
8 4 4 8 10 11 12 11 10 10 10 10 11 10 10 11 11 11 11 11 11 13 13 12 11 11 12 12 12 14 15 13 13 14 14 14 15 11 13 15 12 13 12
6 4 8 10 10 10 11 11 11 10 9 8 10 9 9 10 10 10 10 10 11 10 12 12 12 11 10 10 13 15 15 14 13 12 12 13 13 13 14 14 11 11 11
7 2 6 11 10 11 9 10 11 10 10 9 9 8 8 9 8 10 9 9 9 7 14 11 9 9 8 11 14 16 13 11 12 12 14 14 12 12 10 9 10 10 10
5 2 4 8 10 10 10 9 10 10 9 9 9 9 4 9 10 9 9 9 10 11 12 9 8 9 8 14 17 15 12 10 11 13 11 9 9 9 8 9 9 9 9
7 6 2 5 8 8 10 9 10 10 11 10 10 10 7 6 9 10 11 10 11 10 11 9 7 9 10 14 17 14 11 9 10 13 10 6 6 8 8 9 8 8 8
7 4 3 4 6 8 9 10 10 11 12 12 11 11 10 8 7 11 11 12 11 12 12 10 9 10 11 14 17 13 10 9 11 11 8 5 5 8 8 8 8 8 7
9 7 6 1 4 6 9 10 11 11 12 12 13 12 11 11 8 11 12 14 13 13 13 12 11 11 12 14 16 16 11 9 10 10 7 3 6 9 9 8 7 7 7
8 9 8 8 2 5 8 10 12 13 13 13 14 14 12 13 11 12 14 14 15 15 13 12 12 13 13 13 14 16 14 11 9 11 8 6 7 10 9 8 7 7 7
8 9 9 7 5 3 7 11 13 14 15 15 15 16 15 14 13 14 15 15 17 17 14 13 13 14 14 13 13 14 17 15 11 12 10 8 8 10 9 8 8 7 7
11 11 11 9 9 6 4 9 13 17 17 17 17 18 18 18 17 16 17 16 18 19 18 15 15 16 15 15 14 14 15 17 13 14 13 11 9 10 10 10 9 8 8
14 15 14 14 13 12 9 9 8 17 18 21 21 20 21 21 20 19 19 19 19 21 21 19 17 18 17 16 16 15 16 18 16 15 15 14 12 11 12 11 11 11 10
13 14 15 16 15 17 16 14 14 13 19 21 23 23 23 23 22 22 21 22 22 22 24 23 20 21 21 20 18 17 16 19 19 17 16 17 15 14 14 14 14 13 12
15 16 16 16 17 17 18 19 18 17 16 20 24 26 27 27 27 27 26 25 26 27 28 27 25 24 24 22 20 20 19 20 22 19 18 21 18 16 16 16 16 16 16
20 21 20 19 17 18 19 19 19 20 20 20 23 25 28 31 32 30 31 29 30 30 31 31 30 27 26 25 24 22 21 21 23 21 21 23 21 19 18 18 18 18 18
20 19 17 16 17 19 21 20 22 21 21 24 23 25 27 32 34 34 33 33 33 33 33 33 33 31 30 28 28 27 27 24 22 24 22 22 24 23 21 20 20 21 20
24 24 23 23 20 19 22 24 26 28 28 26 28 27 25 26 33 35 37 35 36 37 36 35 34 33 32 30 31 31 30 28 27 26 26 25 25 25 24 22 22 22 22
28 30 32 31 30 28 26 25 28 29 30 30 28 31 31 28 30 32 36 37 38 36 38 39 36 35 35 34 33 32 33 32 29 29 27 29 28 28 28 27 25 24 24
29 30 31 31 32 33 34 30 28 29 31 32 32 31 33 33 29 32 35 37 38 38 39 36 36 36 33 35 36 34 33 35 33 32 32 31 30 29 31 30 28 27 26
28 30 31 31 32 31 32 35 34 30 31 32 33 32 32 33 32 30 31 36 37 38 36 37 36 37 36 34 33 29 35 36 36 35 35 33 32 32 31 31 31 31 29
25 27 27 29 33 32 28 24 27 29 30 33 32 32 31 31 31 30 29 30 34 37 38 40 39 33 32 36 24 24 28 34 37 35 35 33 33 34 34 33 33 33 34
24 26 26 27 29 30 28 23 25 28 29 28 27 30 29 29 30 32 30 28 32 34 32 32 34 29 29 32 20 4 3 14 25 33 35 34 34 33 34 35 35 34 36
26 25 26 27 27 27 27 25 23 27 24 25 23 22 24 26 29 30 29 28 28 32 31 33 34 34 27 27 33 12 3 5 4 22 31 33 34 37 41 43 41 39 38
26 26 25 26 27 23 20 18 20 23 20 24 23 23 22 20 24 27 27 26 26 28 28 33 35 35 24 19 18 30 19 6 3 2 9 20 22 29 33 35 34 38 42
25 25 25 27 25 18 18 13 17 23 21 23 22 21 20 22 21 23 25 27 28 28 30 32 34 33 30 29 23 18 26 20 13 2 3 5 11 17 21 24 26 28 31
25 26 30 32 29 21 17 12 20 17 18 17 18 17 19 20 22 21 21 24 27 30 30 29 31 34 35 30 28 28 24 14 12 9 7 7 8 15 29 31 30 30 31
Wind_Direction
9 189 225 193 192 176 163 160 152 145 139 133 127 122 121 124 126 125 126 126 126 126 126 122 121 120 122 112 112 110 105 100 114 121 112 103 108 100 99 102 100 94 88
345 170 235 211 195 189 177 168 163 155 149 143 134 128 124 126 125 125 131 133 135 139 138 128 123 116 113 117 111 111 109 102 112 125 118 105 104 108 108 110 97 89 87
4 270 237 210 203 194 190 178 173 170 157 148 145 138 135 134 133 131 134 139 144 150 147 133 132 134 120 122 119 117 113 107 102 120 121 110 108 111 120 110 103 93 90
14 157 220 206 203 199 192 191 188 184 173 164 160 139 149 150 145 146 146 150 151 158 150 145 146 154 151 145 130 124 120 116 120 121 119 112 107 108 109 109 105 102 98
27 45 202 215 205 200 195 199 200 198 196 182 175 163 186 166 167 172 164 162 167 164 162 162 161 159 152 149 142 133 127 135 151 134 132 129 128 117 116 114 107 102 99
45 46 159 199 213 212 201 202 207 210 208 200 193 179 189 195 188 183 186 178 180 181 180 174 168 166 156 153 151 143 129 127 131 173 153 129 139 130 124 122 115 110 106
38 30 15 202 222 211 213 214 212 208 211 203 198 197 197 209 213 201 190 194 192 192 195 191 182 175 165 160 164 157 141 137 144 152 159 152 149 137 132 127 120 117 113
30 19 20 153 209 222 221 222 221 217 211 211 209 205 209 213 224 216 205 207 201 197 199 200 199 188 179 172 175 175 164 158 164 167 171 175 171 155 150 148 141 136 134
15 12 7 13 205 234 233 230 226 223 219 218 216 216 217 217 229 220 213 214 213 210 210 210 204 197 192 189 186 187 184 182 178 180 187 201 194 169 168 167 162 156 154
348 348 347 353 354 261 229 239 240 234 230 228 223 223 220 226 234 224 210 214 220 220 217 219 217 207 204 204 199 197 195 193 196 198 200 206 192 185 187 185 181 176 173
335 334 331 319 317 311 291 243 246 246 242 238 232 229 227 228 233 224 221 220 217 217 220 223 224 219 217 218 215 208 203 202 205 204 211 207 206 203 203 201 198 196 196
330 325 323 315 309 300 283 265 261 244 245 243 240 234 232 233 234 230 226 224 221 219 221 225 227 222 220 218 216 215 214 207 204 211 211 212 218 214 214 215 214 214 214
323 322 323 315 308 301 293 282 268 268 246 243 243 240 238 237 236 234 232 227 223 221 221 223 225 223 221 220 220 220 219 216 214 219 223 220 223 221 223 225 223 223 224
309 312 319 317 309 306 299 289 280 272 263 249 243 242 240 239 239 237 234 230 226 223 223 223 224 225 225 225 224 225 224 221 221 226 229 222 228 232 228 230 231 230 230
340 330 318 309 301 307 300 295 287 276 268 263 260 249 246 242 242 240 237 234 231 228 227 225 227 227 227 227 228 226 225 226 227 233 237 226 229 236 238 236 234 234 234
346 344 340 329 316 303 298 287 284 284 279 266 262 259 256 248 245 242 238 235 233 233 231 230 230 229 229 229 230 230 230 230 231 230 236 236 234 238 243 245 240 234 237
330 322 317 315 307 302 297 288 283 279 279 276 265 260 259 250 248 243 241 236 232 236 233 234 235 235 235 234 236 234 233 232 232 235 238 242 241 239 244 248 250 248 242
331 325 312 307 302 300 296 289 283 278 276 270 269 261 259 259 247 245 242 240 235 235 233 231 233 232 235 235 237 236 232 232 233 233 237 239 243 244 245 244 249 253 253
331 329 323 315 309 298 291 290 283 281 272 269 270 270 263 259 262 253 241 241 243 235 232 234 230 230 226 231 235 238 234 232 233 235 239 241 244 247 247 245 252 256 256
332 329 325 321 318 313 301 289 285 281 271 265 262 266 265 262 262 265 259 246 243 237 235 234 234 230 225 227 231 234 239 236 233 237 240 241 246 249 249 249 253 253 254
334 326 320 315 312 310 301 292 290 287 280 271 264 265 264 265 260 265 269 263 251 241 241 239 232 225 221 226 221 229 239 244 242 241 239 239 246 249 250 252 253 254 254
331 326 317 309 305 304 293 283 284 292 282 277 275 264 266 265 266 262 267 270 263 249 242 239 227 220 224 216 210 190 217 239 238 236 238 241 245 248 248 250 252 254 254
333 329 319 312 304 298 296 289 286 297 279 273 272 261 266 269 267 264 265 271 271 262 248 247 241 219 218 212 210 197 197 217 202 237 243 246 249 251 252 255 253 256 255
333 330 327 319 307 299 300 286 284 290 273 274 274 270 268 280 280 264 265 273 277 268 255 251 246 237 226 212 209 220 223 174 189 234 232 234 245 249 253 260 260 257 257
339 337 336 334 323 323 322 298 291 294 283 275 273 275 275 279 279 268 270 276 279 277 264 256 255 247 235 225 214 215 225 220 216 167 210 221 221 251 270 265 262 260 261
347 353 357 353 357 349 339 314 315 294 288 284 276 278 286 286 280 278 280 285 287 281 273 264 262 255 244 229 224 219 217 213 211 209 229 230 219 246 256 262 267 268 267
Height
806 806 807 807 807 808 808 809 809 810 811 812 812 813 814 814 814 814 815 815 816 817 819 819 820 820 821 821 821 820 821 822 821 821 822 822 822 823 823 823 823 823 823
806 806 806 806 807 808 808 810 811 811 812 813 814 814 815 816 816 816 816 817 818 818 819 820 821 821 821 822 821 822 822 823 823 823 823 823 824 825 825 825 825 825 825
806 806 806 806 807 808 809 810 811 812 813 814 815 815 816 817 817 817 818 818 819 820 820 821 821 822 822 822 822 822 824 824 825 825 825 825 825 825 826 826 827 826 826
805 804 805 805 806 808 810 811 812 812 814 814 815 815 816 817 818 819 819 820 820 820 821 821 822 822 822 823 823 824 825 826 826 827 827 827 827 827 828 827 827 826 826
806 805 805 806 807 808 809 811 812 813 815 815 815 816 817 817 818 819 819 820 820 821 821 822 822 823 823 823 824 825 826 826 827 827 828 828 828 829 829 829 828 827 827
807 806 805 806 807 808 809 810 811 812 813 815 816 817 817 818 818 818 819 819 820 821 821 822 822 823 823 824 825 825 826 826 826 827 828 828 828 829 829 829 828 828 828
808 807 806 806 807 807 809 809 810 811 812 814 815 816 816 817 817 818 818 819 820 820 821 821 822 822 823 824 825 826 826 826 826 827 828 828 829 829 830 830 830 829 829
809 808 807 806 807 807 807 808 809 811 811 813 814 814 816 816 816 817 818 818 819 819 820 821 822 822 823 824 825 826 826 826 827 827 828 828 828 829 829 829 829 830 830
810 809 808 807 806 807 807 808 809 809 810 811 812 813 814 815 815 815 816 818 818 819 819 821 821 822 823 823 824 825 826 826 826 827 827 827 828 828 828 829 829 829 830
810 809 808 808 808 806 806 807 808 808 809 809 810 811 812 812 813 813 814 815 817 818 819 820 821 821 822 823 823 824 824 825 825 825 826 826 827 827 827 828 828 829 829
809 809 808 808 807 806 805 805 806 807 807 807 808 809 810 810 811 811 812 813 814 815 817 818 819 820 821 822 822 823 823 824 824 824 824 825 825 826 826 826 827 828 828
808 807 807 807 806 805 804 804 803 803 804 805 806 806 807 808 808 809 809 810 812 813 814 815 817 818 819 819 820 821 822 822 822 822 822 823 824 824 824 825 826 826 827
807 806 805 804 804 803 802 802 801 800 800 801 802 803 804 805 806 806 807 808 808 810 811 812 813 814 815 816 817 819 820 820 821 821 821 821 822 822 822 822 823 824 825
805 804 803 802 801 800 799 799 798 798 798 797 798 799 800 801 802 803 803 804 805 806 807 808 809 810 812 813 814 815 816 817 817 818 818 819 819 820 820 820 820 821 821
804 802 801 800 799 798 796 795 795 794 794 794 795 795 796 796 797 798 798 800 801 802 802 804 805 806 808 810 811 811 812 813 814 815 815 816 817 817 817 817 818 818 818
803 800 798 797 796 795 793 792 791 790 789 790 790 791 791 791 791 792 793 794 796 797 799 800 801 802 803 805 806 807 808 809 810 811 812 813 814 815 815 815 815 816 816
803 799 796 794 792 791 789 788 786 785 785 784 784 785 786 786 787 787 788 788 789 790 793 796 797 799 800 801 801 802 803 804 805 806 808 809 810 811 812 812 813 813 813
801 797 793 791 788 786 784 782 781 780 779 777 778 778 779 780 781 782 782 782 783 783 785 788 790 792 794 795 795 795 797 798 800 801 802 804 805 806 807 808 808 809 809
799 795 790 787 783 780 778 776 774 773 772 771 771 772 772 773 774 776 775 777 777 777 778 781 783 785 787 788 789 790 791 792 793 795 796 797 799 800 801 802 803 804 805
797 793 788 783 780 776 772 769 767 766 764 764 764 765 766 767 768 770 770 770 772 771 773 775 777 778 779 781 783 784 785 786 786 787 789 791 793 794 795 796 797 798 798
795 790 785 780 774 771 768 766 763 760 759 758 758 760 760 761 762 763 764 765 766 766 766 767 769 771 773 774 778 779 779 780 781 781 781 784 785 786 788 789 790 791 792
792 787 782 777 772 767 764 762 761 758 755 753 753 754 755 756 756 758 759 759 760 761 761 761 761 763 764 766 770 774 774 775 774 772 773 775 777 780 781 782 783 784 785
788 783 778 772 767 763 759 756 755 753 750 750 750 749 751 751 752 752 754 754 755 755 755 755 754 750 752 753 759 763 768 765 767 766 766 768 770 772 773 774 775 776 778
786 780 773 767 761 756 753 752 751 750 748 747 747 747 746 747 747 748 749 750 750 750 749 748 747 746 732 745 753 755 756 757 761 764 760 761 762 765 765 766 767 768 770
784 777 770 763 757 751 748 748 748 745 744 743 743 743 742 743 743 744 745 745 745 745 743 742 741 738 738 741 744 748 751 752 751 755 757 757 756 758 760 761 761 761 763
781 775 767 760 752 748 747 746 745 743 742 741 740 740 740 739 739 740 740 740 739 738 737 737 734 734 735 735 737 739 741 742 742 747 749 751 751 749 754 756 754 755 756